User: anonymous   Login
Location: L�tisburg
(47.3947°N, 9.0820°E)
Time: 14:40:34
(UTC+00:00)
Language:

FENGYUN 1C DEB - Orbit

View from above orbital plane
View from above orbital plane
View from above satellite
View from above satellite

Ground track
Ground track

The orbit data is extracted from the following two-line orbital elements,

1 32112U 99025CRE 21237.08026147  .00004441  00000-0  32923-3 0  9992
2 32112  98.5896 169.7564 0101747 184.3579 175.6767 14.99625655422392
Epoch (UTC): 25 August 2021 01:55:34
Eccentricity: 0.0101747
inclination: 98.5896°
perigee height: 497 km
apogee height: 639 km
right ascension of ascending node: 169.7564°
argument of perigee: 184.3579°
revolutions per day: 14.99625655
mean anomaly at epoch: 175.6767°
orbit number at epoch: 42239

The dashed part of the orbit path shows where the satellite is in the earth's shadow,  

DLR